Weather History for Cullman Regional Airport, LA

Change the Weather History Date:

Wednesday, April 9, 2014

  Actual Average Record
Temperature  
Mean Temperature 54 °F -  
Max Temperature 65 °F - - ()
Min Temperature 43 °F - - ()
Degree Days  
Heating Degree Days 11    
Growing Degree Days 4 (Base 50)    
Moisture  
Dew Point 40 °F    
Average Humidity 67    
Maximum Humidity 96    
Minimum Humidity 30    
Precipitation  
Precipitation 0.01 in - - ()
Sea Level Pressure  
Sea Level Pressure 30.10 in    
Wind  
Wind Speed 5 mph (NW)    
Max Wind Speed 10 mph    
Max Gust Speed 18 mph    
Visibility 10 miles    
Events Rain    
T = Trace of Precipitation, MM = Missing Value Source: NWS Daily Summary

Daily Weather History Graph

Daily Weather History Graph

Search for Another Location

Airport:

Trip Planner

Search our weather history database for the weather conditions in past years. The results will help you decide how hot, cold, wet, or windy it might be!

Date:

Astronomy

Apr. 09, 2014 Rise Set
Actual Time 6:23 AM CDT 7:14 PM CDT
Civil Twilight 5:58 AM CDT 7:40 PM CDT
Nautical Twilight 5:28 AM CDT 8:10 PM CDT
Astronomical Twilight 4:57 AM CDT 8:41 PM CDT
Moon 2:15 PM CDT (4/9) 2:59 AM CDT (4/9)
Length of Visible Light 13h 41m
Length of Day
12h 50m
Waxing Gibbous, 72% of the Moon is Illuminated
Apr 9
Waxing Gibbous
Apr 15
Full
Apr 22
Last Quarter
Apr 29
New
May 6
First Quarter

Hourly Weather History & Observations

Time (CDT) Temp. Windchill Dew Point Humidity Pressure Visibility Wind Dir Wind Speed Gust Speed Precip Events Conditions
12:15 AM 47.7 °F - 45.3 °F 92% 29.95 in 10.0 mi WNW 5.8 mph - N/A   Scattered Clouds
12:35 AM 47.7 °F - 45.7 °F 93% 29.96 in 10.0 mi NW 5.8 mph - N/A Rain Light Rain
12:55 AM 47.7 °F - 46.0 °F 94% 29.96 in 10.0 mi WNW 3.5 mph - N/A   Scattered Clouds
1:15 AM 47.3 °F - 45.9 °F 95% 29.97 in 10.0 mi NW 4.6 mph - N/A   Scattered Clouds
1:35 AM 47.5 °F - 46.0 °F 95% 29.97 in 10.0 mi NW 3.5 mph - N/A   Scattered Clouds
1:55 AM 47.3 °F - 46.0 °F 95% 29.97 in 10.0 mi WNW 3.5 mph - N/A   Mostly Cloudy
2:15 AM 47.3 °F - 45.9 °F 95% 29.97 in 10.0 mi NW 5.8 mph - N/A   Scattered Clouds
2:35 AM 46.9 °F - 45.7 °F 95% 29.98 in 10.0 mi NW 4.6 mph - N/A   Clear
2:55 AM 47.3 °F - 45.7 °F 94% 29.98 in 10.0 mi NW 5.8 mph - N/A   Clear
3:15 AM 47.3 °F - 45.7 °F 94% 29.99 in 10.0 mi NW 8.1 mph - N/A   Scattered Clouds
3:35 AM 47.3 °F - 45.7 °F 94% 29.99 in 10.0 mi NW 4.6 mph - N/A   Mostly Cloudy
3:55 AM 47.1 °F - 45.5 °F 94% 29.99 in 10.0 mi NW 3.5 mph - N/A   Scattered Clouds
4:15 AM 46.4 °F 45.2 °F 45.0 °F 95% 29.99 in 7.0 mi WNW 3.5 mph - N/A   Scattered Clouds
4:35 AM 45.9 °F - 44.8 °F 96% 30.00 in 7.0 mi Calm Calm - N/A   Scattered Clouds
4:55 AM 45.5 °F 44.2 °F 44.4 °F 96% 30.00 in 10.0 mi NW 3.5 mph - N/A   Clear
5:15 AM 45.1 °F - 43.9 °F 95% 30.01 in 10.0 mi Calm Calm - N/A   Clear
5:35 AM 44.8 °F - 43.5 °F 95% 30.02 in 10.0 mi Calm Calm - N/A   Clear
5:55 AM 44.6 °F 42.2 °F 43.0 °F 94% 30.03 in 10.0 mi NW 4.6 mph - N/A   Clear
6:15 AM 44.2 °F 41.0 °F 42.6 °F 94% 30.05 in 10.0 mi NW 5.8 mph - N/A   Clear
6:35 AM 43.9 °F 42.3 °F 42.3 °F 94% 30.06 in 10.0 mi NW 3.5 mph - N/A   Clear
6:55 AM 43.7 °F 42.1 °F 42.1 °F 94% 30.07 in 10.0 mi NW 3.5 mph - N/A   Clear
7:15 AM 44.1 °F 42.5 °F 42.3 °F 93% 30.08 in 10.0 mi WNW 3.5 mph - N/A   Clear
7:35 AM 45.0 °F 43.5 °F 42.6 °F 91% 30.09 in 10.0 mi WNW 3.5 mph - N/A   Clear
7:55 AM 46.0 °F 44.8 °F 42.8 °F 88% 30.10 in 10.0 mi NW 3.5 mph - N/A   Clear
8:15 AM 47.3 °F - 43.0 °F 85% 30.11 in 10.0 mi NNW 5.8 mph - N/A   Clear
8:35 AM 48.4 °F - 42.4 °F 80% 30.12 in 10.0 mi NNW 6.9 mph - N/A   Clear
8:55 AM 49.3 °F - 43.0 °F 79% 30.13 in 10.0 mi NNW 4.6 mph - N/A   Clear
9:15 AM 51.1 °F - 43.7 °F 76% 30.14 in 10.0 mi NW 6.9 mph - N/A   Clear
9:35 AM 52.0 °F - 43.2 °F 72% 30.15 in 10.0 mi NNW 9.2 mph - N/A   Clear
9:55 AM 53.8 °F - 43.3 °F 68% 30.16 in 10.0 mi NW 9.2 mph - N/A   Clear
10:15 AM 55.0 °F - 42.6 °F 63% 30.17 in 10.0 mi NW 6.9 mph - N/A   Clear
10:55 AM 57.6 °F - 41.0 °F 54% 30.18 in 10.0 mi NNW 10.4 mph - N/A   Clear
11:15 AM 58.6 °F - 39.6 °F 49% 30.18 in 10.0 mi NNW 8.1 mph 17.3 mph N/A   Clear
11:35 AM 59.5 °F - 37.8 °F 44% 30.17 in 10.0 mi North 10.4 mph 16.1 mph N/A   Clear
11:55 AM 59.9 °F - 35.4 °F 40% 30.17 in 10.0 mi WNW 10.4 mph 18.4 mph N/A   Clear
12:15 PM 61.0 °F - 35.4 °F 38% 30.17 in 10.0 mi North 10.4 mph - 0.01 in   Clear
12:35 PM 61.5 °F - 36.3 °F 39% 30.16 in 10.0 mi NNE 10.4 mph - 0.01 in   Clear
12:55 PM 61.5 °F - 36.9 °F 40% 30.16 in 10.0 mi NNW 9.2 mph - 0.01 in   Clear
1:15 PM 62.4 °F - 35.8 °F 37% 30.16 in 10.0 mi West 8.1 mph - N/A   Clear
1:35 PM 63.3 °F - 34.9 °F 35% 30.16 in 10.0 mi North 9.2 mph - N/A   Clear
1:55 PM 63.3 °F - 36.1 °F 36% 30.16 in 10.0 mi West 4.6 mph - N/A   Clear
2:15 PM 64.2 °F - 34.7 °F 33% 30.15 in 10.0 mi NNW 6.9 mph - N/A   Clear
2:35 PM 64.0 °F - 35.2 °F 34% 30.14 in 10.0 mi WSW 5.8 mph - N/A   Clear
2:55 PM 64.4 °F - 34.5 °F 33% 30.14 in 10.0 mi NNW 8.1 mph 16.1 mph N/A   Clear
3:15 PM 64.6 °F - 32.9 °F 31% 30.14 in 10.0 mi NW 5.8 mph - N/A   Clear
3:35 PM 65.1 °F - 33.6 °F 31% 30.13 in 10.0 mi WNW 9.2 mph 16.1 mph N/A   Clear
3:55 PM 65.1 °F - 33.4 °F 31% 30.13 in 10.0 mi NW 5.8 mph - N/A   Clear
4:15 PM 65.3 °F - 34.0 °F 31% 30.13 in 10.0 mi NW 4.6 mph - N/A   Clear
4:35 PM 65.8 °F - 33.6 °F 30% 30.13 in 10.0 mi WNW 10.4 mph - N/A   Clear
4:55 PM 64.9 °F - 32.7 °F 30% 30.12 in 10.0 mi NW 8.1 mph - N/A   Clear
5:15 PM 65.1 °F - 34.0 °F 31% 30.12 in 10.0 mi NW 6.9 mph - N/A   Clear
5:35 PM 64.9 °F - 33.1 °F 31% 30.12 in 10.0 mi NW 5.8 mph - N/A   Clear
5:55 PM 64.8 °F - 34.3 °F 32% 30.13 in 10.0 mi North 4.6 mph - N/A   Clear
6:15 PM 64.2 °F - 34.2 °F 33% 30.13 in 10.0 mi Calm Calm - N/A   Clear
6:35 PM 63.0 °F - 33.6 °F 33% 30.13 in 10.0 mi NNW 3.5 mph - N/A   Clear
6:55 PM 61.9 °F - 34.3 °F 36% 30.14 in 10.0 mi Calm Calm - N/A   Clear
7:15 PM 60.3 °F - 35.2 °F 39% 30.14 in 10.0 mi Calm Calm - N/A   Clear
7:35 PM 57.7 °F - 36.1 °F 44% 30.14 in 10.0 mi Calm Calm - N/A   Clear
7:55 PM 54.9 °F - 39.0 °F 55% 30.15 in 10.0 mi Calm Calm - N/A   Clear
8:15 PM 53.4 °F - 39.0 °F 58% 30.15 in 10.0 mi Calm Calm - N/A   Clear
8:35 PM 51.8 °F - 39.7 °F 63% 30.16 in 10.0 mi Calm Calm - N/A   Clear
8:55 PM 50.2 °F - 41.4 °F 72% 30.17 in 10.0 mi Calm Calm - N/A   Clear
9:15 PM 49.1 °F - 41.0 °F 74% 30.18 in 10.0 mi Calm Calm - N/A   Clear
9:35 PM 48.6 °F - 41.7 °F 77% 30.19 in 10.0 mi Calm Calm - N/A   Clear
9:55 PM 47.5 °F - 40.6 °F 77% 30.19 in 10.0 mi Calm Calm - N/A   Clear
10:15 PM 47.1 °F - 40.3 °F 77% 30.19 in 10.0 mi Calm Calm - N/A   Clear
10:35 PM 45.9 °F - 40.5 °F 81% 30.19 in 10.0 mi Calm Calm - N/A   Clear
10:55 PM 45.5 °F - 41.0 °F 84% 30.19 in 10.0 mi Calm Calm - N/A   Clear
11:15 PM 45.1 °F - 40.6 °F 84% 30.18 in 10.0 mi Calm Calm - N/A   Clear
11:35 PM 44.6 °F - 41.0 °F 87% 30.18 in 10.0 mi Calm Calm - N/A   Clear
11:55 PM 44.1 °F - 39.7 °F 85% 30.18 in 10.0 mi Calm Calm - N/A   Clear